Theta_e
288 288 288 288 288 287 286 286 286 285 287 286 284 285 286 286 281 279 285 286 284 286 288 289 287 284 285 284 284 284 284 285 285 285 285 284 285 285 286 286 286 287 287 287 288 288 288 289 289 289 290 290 291 291 289 288 286 285 285 284 285 285 285 285 285 285 285 285 285 285 284 283 283 283 283 282 282 281 281 281 281 280 280 280 279 279 279
285 286 287 288 286 286 286 286 287 287 287 286 287 286 288 287 285 286 286 285 285 287 279 281 282 284 285 285 284 284 283 282 283 283 283 283 283 284 284 285 285 286 287 287 287 288 288 288 288 289 289 289 290 289 290 291 290 288 283 284 285 285 285 285 286 285 285 285 284 284 283 283 283 283 282 281 281 280 280 280 280 280 279 279 279 279 278
282 284 285 285 285 285 284 286 287 287 287 287 287 287 287 286 286 287 286 285 285 284 282 282 282 282 283 284 281 281 282 282 282 281 281 282 282 283 284 284 285 285 286 287 287 287 288 288 288 289 289 289 289 289 289 290 290 290 284 285 285 285 285 286 286 285 284 284 284 283 283 283 282 282 281 280 280 280 279 279 280 280 280 279 279 279 278
279 283 282 283 284 284 283 283 284 284 285 283 285 285 287 285 284 285 284 282 277 277 281 280 281 280 279 281 281 280 281 282 282 281 281 281 282 282 282 283 284 284 285 286 286 287 287 288 288 288 288 288 288 288 288 288 289 290 288 286 286 286 286 286 285 285 284 283 283 283 282 282 282 281 281 280 279 279 279 279 279 279 279 279 279 279 279
276 281 282 281 281 280 277 279 282 284 285 286 287 287 284 280 282 280 276 273 277 278 279 278 278 278 278 279 282 279 280 281 281 281 281 281 282 282 282 283 283 284 284 285 286 287 287 288 288 288 288 288 287 287 287 287 288 288 288 287 286 285 286 285 284 284 283 283 283 282 281 281 281 280 280 279 279 279 279 279 279 278 279 279 278 279 278
275 279 279 279 275 269 271 282 278 281 277 277 275 274 275 278 280 277 277 276 279 279 278 277 278 278 276 278 283 282 281 280 280 282 282 282 282 282 282 283 283 284 285 285 286 286 287 288 288 288 288 287 287 287 287 287 286 286 286 286 285 285 284 284 283 282 282 282 282 282 280 280 280 280 279 279 279 279 279 278 278 278 278 278 278 278 277
272 275 275 271 266 268 275 277 279 278 279 278 274 275 276 277 279 278 277 277 277 278 278 279 279 279 280 281 283 282 282 282 281 281 282 282 282 282 282 283 283 284 284 285 285 285 286 287 287 287 287 288 287 286 286 286 286 284 284 283 284 284 283 282 281 280 281 281 281 280 279 279 279 279 279 279 278 278 278 278 278 277 277 277 277 277 277
272 270 269 264 265 276 278 278 278 279 277 278 277 275 275 276 278 277 276 277 277 279 278 279 280 279 280 281 282 282 282 282 281 282 282 282 282 282 282 283 284 284 284 285 285 285 286 286 286 286 286 287 286 285 286 285 285 284 283 283 283 282 281 282 280 279 278 278 278 277 278 277 278 279 278 278 278 278 278 277 278 278 277 277 277 276 276
270 272 272 271 278 276 276 271 275 276 273 273 274 270 275 276 278 277 276 277 277 278 278 279 279 279 279 278 279 282 282 282 283 283 283 283 283 283 283 284 284 285 285 286 286 286 286 286 286 286 287 286 285 285 285 285 284 283 282 283 283 282 281 281 280 278 277 277 277 277 277 277 277 278 278 278 278 278 277 277 277 277 276 276 276 276 276
279 273 271 272 272 270 272 272 275 279 280 280 279 276 273 277 277 279 276 276 276 277 278 277 278 278 275 273 275 279 281 282 282 284 284 283 283 283 283 284 285 285 285 286 286 286 286 286 286 287 287 286 285 284 284 284 283 282 282 282 281 280 280 280 279 278 279 278 279 278 278 277 278 278 278 278 278 277 277 276 276 276 276 276 276 276 275
273 270 268 268 268 270 271 269 274 278 279 278 278 275 269 277 276 279 277 275 277 277 276 276 278 274 270 271 275 278 280 281 282 282 282 282 282 283 283 283 284 284 285 285 285 285 285 284 286 286 286 286 285 284 285 284 282 282 282 281 280 278 278 278 277 277 278 279 280 278 278 278 277 277 277 277 277 276 277 277 276 276 275 275 274 274 274
270 269 267 266 270 270 274 273 276 278 277 278 278 267 268 275 275 279 278 276 277 277 277 277 275 273 270 271 275 279 281 281 282 281 280 280 281 282 282 284 284 284 284 284 283 283 283 284 285 285 286 286 285 284 284 284 283 283 281 280 278 277 275 274 273 275 277 278 279 278 278 277 277 277 276 275 275 275 275 275 275 274 274 274 273 273 273
268 271 267 269 270 274 270 270 274 275 277 274 267 264 270 274 274 277 278 276 277 278 275 275 272 275 277 278 279 280 281 280 280 281 281 280 281 280 281 282 284 282 282 282 282 282 283 283 284 285 285 284 283 283 283 283 284 284 280 277 276 275 274 273 273 274 274 276 276 276 276 276 276 275 275 275 274 273 272 272 272 272 272 272 272 271 271
266 266 265 266 269 272 269 272 272 275 273 264 265 268 273 272 274 274 275 275 277 277 276 276 275 277 278 279 280 279 279 279 279 279 279 280 280 281 281 282 281 281 281 281 281 281 281 282 282 283 283 281 281 282 282 282 284 283 279 276 275 274 275 274 273 273 273 275 275 275 274 274 274 273 273 273 273 272 271 271 271 271 271 270 270 269 269
264 264 262 262 260 267 271 273 274 273 266 266 274 272 273 275 275 274 274 275 275 275 275 276 276 276 276 277 277 278 278 278 278 278 278 278 278 278 279 279 279 280 279 278 278 278 279 279 280 280 279 278 279 281 281 282 284 282 278 276 276 275 274 274 273 273 273 274 274 274 274 274 274 273 272 272 272 272 271 270 270 270 269 269 268 268 267
263 262 261 260 264 270 275 272 267 271 274 276 275 273 274 275 277 276 275 275 276 275 274 274 274 275 275 275 276 276 276 276 276 276 276 276 276 277 278 278 278 279 277 277 276 276 276 277 277 277 277 276 277 278 278 281 283 282 281 278 276 275 274 273 273 273 273 273 273 273 273 273 273 272 271 271 271 271 271 270 270 269 268 268 267 267 267
266 262 268 272 274 275 277 276 275 276 276 275 274 276 276 276 275 277 275 275 275 275 274 274 274 274 275 274 275 274 274 274 274 274 274 274 274 275 275 276 277 276 275 274 274 274 274 275 275 275 276 275 275 275 276 278 279 281 282 279 277 276 275 273 273 273 272 273 272 272 273 273 272 271 270 270 270 270 270 270 270 269 268 268 268 268 268
273 273 274 276 275 276 276 277 277 275 275 275 276 276 275 276 277 276 275 275 275 274 274 273 273 274 274 274 274 273 273 273 273 273 273 272 273 273 274 274 274 274 273 273 272 272 272 273 273 274 274 274 273 273 274 275 278 282 280 279 278 278 277 274 273 272 272 272 272 272 272 273 272 272 270 270 270 270 270 270 270 270 269 268 269 269 268
267 263 273 272 274 275 276 276 276 275 276 276 276 276 276 277 276 274 275 275 275 274 274 273 273 273 273 272 272 272 272 272 272 271 271 271 271 271 271 271 272 270 270 270 270 270 270 271 271 272 272 272 272 272 273 274 278 278 276 276 277 277 277 276 274 272 272 272 272 272 272 272 272 271 271 270 270 269 269 269 269 269 269 269 269 269 268
269 268 273 273 274 275 275 275 275 275 276 276 276 277 277 276 274 273 273 273 273 273 271 272 271 271 271 271 270 270 271 270 270 270 270 269 269 270 270 270 270 269 268 268 268 268 268 269 270 270 270 270 270 271 272 274 275 274 273 273 274 276 277 277 274 272 272 271 271 271 271 272 271 271 271 271 270 269 269 269 269 269 269 268 268 269 268
271 273 274 274 275 275 275 276 276 276 276 276 275 276 275 273 273 273 273 273 272 272 271 271 270 269 269 269 269 269 269 269 269 268 268 268 268 268 268 268 268 267 267 267 267 267 267 268 268 268 268 268 269 270 271 272 271 270 270 271 272 273 275 276 275 273 272 272 271 271 271 271 272 272 271 271 271 271 272 272 272 271 270 270 270 271 270
266 268 271 274 266 267 273 274 275 274 274 274 274 273 271 270 271 271 270 270 271 270 270 269 269 267 268 268 268 267 267 267 267 267 267 267 267 267 267 268 267 266 266 265 265 265 265 266 266 266 266 267 268 269 269 269 268 267 268 269 269 271 273 275 275 273 271 271 271 271 271 270 270 271 273 275 273 272 271 274 276 276 275 272 272 272 271
267 273 275 275 275 274 275 276 275 272 272 272 271 270 270 270 269 269 268 268 268 268 268 268 267 266 267 267 267 266 266 266 267 266 266 265 265 266 266 265 264 264 264 264 264 263 264 264 264 264 264 265 265 266 266 266 266 266 267 267 268 270 272 273 274 273 272 271 271 270 270 270 270 270 270 272 276 277 275 275 276 277 277 277 276 276 273
275 276 275 274 273 273 275 275 271 271 271 270 270 269 268 268 267 267 267 267 267 267 267 267 267 266 266 267 266 265 265 265 265 265 265 265 265 265 265 264 263 263 262 262 262 262 262 262 262 262 262 263 263 263 264 264 265 266 267 268 268 269 271 273 274 274 273 272 271 270 270 270 270 269 269 269 270 275 277 276 277 277 277 278 277 277 277
274 277 274 273 273 274 273 270 270 270 267 267 267 266 266 266 266 266 266 266 266 266 265 266 266 267 265 265 265 264 264 264 265 265 265 264 264 264 263 262 261 261 261 261 261 261 261 261 261 261 261 261 262 262 263 264 265 265 266 267 268 269 271 272 273 273 272 272 271 270 269 269 269 269 269 269 268 269 272 277 278 277 278 278 278 278 278
274 274 270 268 267 269 270 269 270 266 265 266 265 265 265 266 266 266 265 265 266 265 265 265 264 265 265 264 264 264 263 263 264 264 263 262 261 261 260 259 260 260 260 260 260 259 259 259 259 259 259 260 261 261 262 263 263 264 264 265 266 267 269 271 273 274 273 272 271 271 270 270 269 269 269 269 269 269 269 270 272 275 277 278 278 278 278
266 266 267 269 270 272 268 269 268 265 265 265 264 264 265 264 265 265 265 264 264 264 263 264 264 264 263 263 263 263 262 262 262 261 261 260 259 259 259 259 259 259 259 258 258 259 259 259 259 259 259 259 260 261 261 262 263 264 264 265 266 268 269 270 271 273 274 273 272 271 270 270 269 269 269 269 269 269 269 269 269 269 270 273 277 279 276
264 263 266 267 270 269 265 266 264 264 264 263 263 264 264 264 262 261 261 261 261 261 262 262 262 261 261 261 260 260 260 259 258 258 258 258 258 259 258 258 258 258 258 257 257 258 258 258 258 258 258 259 260 260 261 262 264 265 265 266 266 267 268 270 272 274 274 274 272 271 270 270 270 270 269 269 269 269 270 270 270 269 270 272 273 277 279
262 262 262 262 263 263 263 263 263 263 263 263 263 262 261 259 259 259 260 261 261 261 261 261 260 260 260 259 259 258 257 257 257 256 257 257 258 257 258 257 257 257 257 257 257 257 257 257 257 257 258 259 261 262 263 264 263 262 263 263 264 265 267 269 270 273 274 274 272 271 272 270 270 269 269 269 269 269 269 269 270 270 271 272 272 273 276
260 261 260 260 261 261 260 260 261 261 261 261 260 259 260 259 259 259 260 260 260 259 260 259 259 258 258 257 257 256 256 255 256 256 256 256 256 257 257 257 256 256 256 256 256 257 257 257 257 258 259 261 262 262 263 262 262 263 263 264 265 266 268 270 271 272 273 273 271 272 271 270 269 269 268 268 268 269 269 269 270 270 270 271 272 272 272
258 258 257 258 258 259 259 259 259 259 260 259 259 259 259 258 258 258 259 259 259 258 258 257 256 256 256 255 255 256 256 255 255 255 256 256 256 256 256 256 255 254 255 256 257 257 257 257 258 258 260 261 261 262 262 263 263 264 264 264 265 266 267 268 269 269 272 272 270 270 269 269 268 268 268 268 268 268 269 269 270 270 271 271 271 271 272
254 255 255 258 257 257 256 257 258 258 258 259 257 257 257 257 256 256 256 256 256 256 256 255 255 254 255 255 255 255 254 254 254 255 255 255 256 256 256 256 256 257 257 257 257 258 258 258 257 258 260 261 261 262 262 261 261 261 261 262 263 264 266 268 269 270 271 270 269 268 268 268 267 268 267 268 268 268 269 269 269 270 270 270 270 271 273
253 255 255 255 254 255 255 256 256 256 256 256 256 257 257 256 256 256 256 256 255 255 254 254 254 254 254 254 254 254 254 254 254 254 254 255 255 256 257 257 257 257 257 258 258 258 258 257 258 259 260 261 261 261 261 261 261 261 262 262 263 264 266 268 270 270 270 269 268 268 267 267 267 267 267 268 268 268 269 269 270 270 270 270 271 272 273
253 253 254 254 253 254 254 254 255 255 255 256 256 256 255 255 255 255 254 254 254 254 253 254 254 254 254 253 253 253 254 254 254 254 255 255 256 256 257 258 257 257 257 257 257 258 258 258 259 259 260 260 260 260 260 260 260 260 261 262 263 264 264 265 266 268 269 268 267 267 267 267 267 267 267 267 268 269 269 269 269 269 270 270 271 271 273
256 255 256 255 255 255 255 255 254 254 253 253 253 253 254 254 254 254 254 254 253 253 254 254 254 254 254 254 254 254 255 255 255 256 256 256 256 257 257 257 256 256 256 256 257 257 258 258 259 259 259 259 258 259 259 259 260 260 260 261 262 263 264 265 266 267 267 267 267 267 266 266 266 266 267 268 268 268 269 269 269 269 269 267 266 268 271
254 253 253 253 253 252 252 253 253 253 253 252 252 253 253 253 253 252 252 253 254 254 254 254 254 254 254 254 254 255 256 256 256 256 256 257 257 257 256 255 254 254 254 255 257 257 258 258 259 259 258 258 258 259 260 260 260 261 261 262 263 264 265 266 267 267 267 267 266 266 266 266 266 266 267 267 268 268 268 268 267 267 266 266 267 269 269
253 252 252 253 253 252 252 252 252 252 252 252 252 252 252 252 252 252 253 253 253 253 253 253 254 254 254 255 256 257 257 257 257 256 256 256 255 255 254 254 254 254 254 253 255 257 257 257 258 258 258 258 258 259 260 261 261 261 262 263 263 264 264 265 266 266 265 266 266 265 265 265 266 266 266 267 267 267 267 266 265 265 266 266 267 265 261
252 252 252 252 252 252 252 252 252 252 251 251 251 252 252 251 252 252 252 252 252 253 254 254 254 255 256 257 257 256 256 256 256 255 255 254 254 253 253 253 253 253 253 253 256 257 257 257 258 258 258 258 259 259 260 261 262 262 262 262 263 264 264 264 264 264 264 264 264 265 265 265 265 265 265 266 266 265 265 264 264 265 265 265 263 261 260
252 253 252 252 252 251 251 251 251 251 251 250 250 250 251 251 252 252 252 252 253 254 255 255 256 257 256 256 255 256 255 255 254 254 253 253 254 253 253 253 254 254 254 256 257 257 257 258 258 258 258 258 258 259 260 261 262 262 262 262 262 262 262 263 262 262 262 263 263 263 264 264 264 264 264 264 263 263 262 263 263 262 261 261 260 259 258
252 252 251 252 251 251 251 251 251 251 251 251 250 250 251 251 251 251 252 252 254 256 256 257 257 256 255 255 255 254 254 253 253 253 253 253 253 253 253 254 255 255 256 257 257 257 258 258 258 257 257 258 259 259 260 260 261 261 261 261 261 261 261 261 261 261 261 262 262 261 262 262 262 262 261 261 261 261 261 261 261 260 259 259 258 258 257
252 252 252 252 251 251 251 251 250 251 250 250 250 250 251 251 251 251 252 253 255 256 257 257 256 256 256 255 254 253 253 253 253 252 253 253 252 252 252 252 254 255 256 256 257 257 258 257 257 257 257 258 259 259 259 260 259 259 259 260 260 260 260 260 260 260 260 260 260 261 260 260 260 260 259 260 259 260 260 259 259 258 258 258 257 257 256
251 252 251 251 251 251 251 251 251 250 250 250 250 251 251 251 252 252 253 255 256 257 257 257 257 256 256 255 254 254 253 252 252 252 252 252 251 252 251 252 255 255 257 257 257 257 257 257 257 258 257 258 258 259 259 259 258 258 258 259 259 259 259 259 259 259 259 259 259 259 259 259 259 258 258 258 259 259 258 258 257 257 257 257 256 256 256
251 250 250 250 250 250 250 250 250 250 250 250 251 251 251 253 253 254 254 256 256 256 256 256 256 256 255 254 253 252 252 252 252 252 252 252 253 253 253 253 255 256 257 257 257 256 257 257 257 257 258 258 258 258 258 257 257 257 257 258 258 258 258 258 258 258 258 258 258 258 258 258 258 258 258 258 258 258 258 257 257 256 256 256 256 255 255
250 250 250 250 250 250 250 250 250 250 249 250 252 252 252 253 254 254 255 256 256 256 256 256 255 255 254 254 253 252 252 252 252 252 251 251 252 253 255 255 255 256 257 257 256 256 256 257 257 258 258 258 258 258 258 257 257 257 257 257 257 257 257 257 257 258 257 257 257 258 258 258 258 258 258 257 257 257 257 257 256 256 255 255 255 255 255
250 250 249 249 249 249 249 249 249 249 250 251 252 252 253 253 254 256 256 256 256 256 256 255 255 255 254 254 253 253 253 253 252 252 251 250 250 251 254 256 256 256 256 256 256 256 256 257 257 258 258 258 258 258 257 257 257 257 257 257 257 257 257 257 257 257 257 257 257 257 257 257 257 257 257 257 257 257 256 255 255 255 254 253 254 253 253
250 249 249 250 248 248 249 249 250 250 251 251 252 253 254 255 256 256 256 256 256 256 256 256 255 255 255 254 254 254 253 253 253 253 253 252 251 252 255 255 255 256 256 256 255 255 256 257 257 257 257 257 257 256 256 257 257 257 256 256 256 256 256 256 256 256 257 257 257 257 257 257 257 257 257 256 256 256 255 255 254 255 254 254 253 253 253
248 248 248 247 248 248 249 249 250 251 251 251 252 252 255 256 256 256 256 256 256 256 256 256 256 256 255 255 254 252 252 252 252 253 253 254 254 255 255 255 256 256 255 254 254 254 255 256 256 256 256 256 256 255 255 256 256 256 256 256 256 256 256 256 256 256 256 256 256 256 256 256 256 256 255 255 255 255 254 254 254 253 253 253 253 253 253
247 247 247 247 247 248 249 249 249 250 251 252 253 254 255 256 256 256 256 256 256 256 256 255 255 255 255 255 255 254 253 252 250 251 254 254 254 254 254 254 255 255 255 254 254 254 255 255 255 255 255 255 255 254 255 255 255 255 255 255 255 256 256 256 256 256 256 256 256 256 255 255 255 255 255 255 254 254 254 253 253 253 253 252 252 252 252
247 247 248 248 248 249 249 251 252 253 253 254 254 254 255 255 255 255 255 255 255 255 255 255 255 255 255 255 255 254 254 254 253 251 254 254 254 253 254 254 255 255 254 253 252 253 254 255 255 255 254 254 253 253 253 254 254 254 255 255 255 255 255 255 256 256 256 255 255 255 255 255 255 255 254 254 253 253 253 253 253 253 252 252 252 252 252
248 248 249 250 250 250 251 252 253 253 254 254 254 255 255 255 254 254 255 255 255 255 255 255 255 255 255 255 255 254 254 254 254 255 254 254 254 254 254 253 254 254 254 252 252 252 253 254 254 254 253 252 252 252 252 252 253 253 253 253 254 254 254 255 255 255 255 254 254 254 254 254 254 253 253 253 253 253 253 253 252 252 251 251 251 251 250
249 250 250 251 252 253 254 254 254 254 254 254 255 255 255 254 254 254 254 254 254 254 254 254 255 255 255 255 255 254 254 254 254 255 254 254 254 254 254 254 254 253 253 253 252 252 252 252 252 252 252 252 251 251 252 251 251 251 252 251 252 252 252 253 253 253 253 253 253 253 253 253 253 253 253 253 252 252 252 251 251 251 251 251 251 250 249
250 251 252 253 253 254 254 254 255 255 255 255 255 255 254 254 254 254 254 255 254 253 253 253 253 254 255 254 254 254 254 254 254 254 254 254 253 253 253 254 253 253 252 252 252 252 252 252 253 253 252 251 251 251 251 251 251 251 251 251 251 251 251 251 251 251 251 251 252 251 252 252 252 252 252 252 252 251 251 251 251 251 250 249 248 248 248
Wind_Speed
13 15 18 16 16 15 16 17 17 19 19 18 20 23 22 18 17 21 17 16 19 16 13 11 14 17 13 13 12 11 13 15 16 17 18 17 17 17 17 16 16 17 17 16 16 16 16 17 18 18 17 17 16 15 12 11 9 9 8 6 10 11 12 13 16 16 15 14 14 13 12 13 13 14 15 15 13 13 13 13 12 13 12 12 13 12 11
7 10 12 12 15 16 16 15 17 19 21 23 25 26 26 25 23 22 20 20 21 9 13 9 11 13 14 10 10 14 18 16 15 14 14 14 14 15 15 15 14 14 15 15 15 16 17 17 18 18 17 17 17 17 18 17 14 11 5 9 11 11 12 15 16 14 13 11 10 10 12 14 15 15 14 13 13 14 14 13 12 12 12 13 14 15 14
13 11 13 11 13 14 18 17 17 17 19 21 21 20 19 22 24 23 27 24 21 7 10 11 11 12 11 13 18 15 12 13 13 13 13 13 12 12 13 14 15 15 15 15 16 17 18 18 19 17 17 16 16 17 18 19 18 15 6 10 11 12 15 17 16 12 10 10 10 12 14 12 11 12 13 13 13 13 12 12 13 13 13 15 14 14 15
10 8 12 12 12 10 13 14 15 18 18 19 15 15 15 17 18 15 14 11 7 11 14 11 8 13 16 14 12 13 13 13 14 14 13 13 13 13 12 13 13 15 15 16 17 17 17 17 17 17 18 18 17 19 20 20 18 16 13 11 12 14 16 15 12 11 11 9 10 12 10 12 12 12 11 12 13 13 13 13 13 13 15 16 15 14 13
14 16 15 15 13 15 17 19 19 17 16 17 17 12 9 9 5 6 3 3 5 7 9 13 13 13 13 12 8 11 13 13 13 13 14 12 13 14 13 13 14 14 14 13 15 16 15 16 16 17 16 15 16 16 18 18 17 16 14 13 13 13 14 11 11 10 8 10 11 10 11 10 9 9 11 12 13 13 16 14 12 14 15 14 15 13 14
12 15 17 11 11 15 15 3 5 6 3 7 7 4 6 11 11 8 8 3 4 4 8 11 13 12 11 11 4 6 9 13 15 14 12 11 12 12 12 12 12 13 13 12 12 14 15 15 15 15 14 13 15 14 14 15 15 16 13 12 10 12 11 9 9 7 7 8 10 10 8 8 10 11 12 13 12 10 10 11 13 13 13 15 13 14 15
12 12 10 12 17 17 1 6 5 3 8 13 12 7 7 6 7 8 7 7 7 7 6 7 9 9 11 9 8 3 10 13 13 14 13 15 15 14 14 15 14 13 13 13 13 13 12 13 14 15 17 16 17 18 17 17 16 15 14 11 10 9 9 8 6 5 5 6 6 5 6 7 9 11 12 10 11 11 12 13 14 15 15 15 14 13 13
5 4 6 10 14 1 4 4 7 3 5 6 9 6 7 5 5 6 5 5 5 7 8 8 8 9 12 8 7 1 9 9 12 12 13 13 14 15 13 14 14 14 14 14 13 14 13 13 13 12 13 14 15 17 16 14 15 14 12 12 11 8 8 7 5 4 5 5 5 5 6 7 9 10 10 11 12 10 10 9 8 8 9 10 12 13 13
10 9 12 17 10 8 3 6 6 7 4 6 7 4 3 5 2 4 2 2 4 5 6 9 10 12 11 6 4 4 6 10 8 9 11 12 13 14 13 12 14 13 12 12 14 14 13 12 13 14 14 14 15 15 16 15 14 14 13 14 13 10 8 7 5 4 4 4 5 6 6 8 9 10 11 11 10 9 10 10 11 12 12 12 12 13 14
8 7 6 7 3 7 1 4 4 7 6 7 6 4 4 6 0 2 3 2 2 3 4 7 9 10 12 15 7 1 4 8 10 10 8 11 11 12 14 13 13 13 12 13 13 12 14 15 14 13 14 14 15 15 16 15 15 15 13 14 13 10 9 7 5 4 4 4 5 6 7 9 9 8 7 7 9 9 12 12 12 11 10 10 10 12 14
7 10 9 7 7 4 6 5 4 8 8 6 2 5 6 5 3 6 4 4 3 3 3 6 5 10 11 11 11 11 12 11 9 11 12 10 12 12 13 14 15 15 14 14 14 13 14 16 15 15 16 15 14 15 15 15 14 13 13 14 12 11 10 7 5 3 3 3 4 6 7 7 7 8 9 9 7 7 8 8 9 8 9 9 9 9 11
6 5 8 11 3 4 3 2 6 8 8 6 3 7 4 6 6 4 4 4 3 4 2 3 2 5 10 13 15 13 13 13 12 11 13 15 13 13 13 11 12 14 14 14 14 14 15 16 15 15 14 14 14 14 15 14 14 14 14 13 11 9 7 5 3 2 1 3 3 4 6 5 4 5 4 5 7 8 7 7 8 8 8 9 10 9 8
9 10 8 5 8 2 0 2 5 8 5 1 9 16 3 6 6 4 4 4 4 4 3 2 4 5 6 11 15 16 13 13 13 9 9 12 13 14 14 13 14 13 13 12 13 14 13 14 15 14 13 13 14 14 13 14 15 14 12 11 10 9 7 5 3 2 1 2 3 2 3 4 4 4 5 6 7 7 7 6 7 7 9 8 9 8 8
6 6 6 8 6 4 2 5 3 5 3 6 10 2 2 3 6 3 5 5 6 4 4 4 5 7 9 9 11 14 15 12 11 12 13 13 13 12 12 14 14 14 14 14 15 15 13 13 13 12 13 15 15 13 12 14 15 12 10 10 9 8 8 5 3 1 1 1 2 3 4 6 6 5 4 5 6 7 6 7 8 8 7 7 7 7 6
1 1 4 7 10 2 6 3 12 2 2 7 5 4 4 5 6 5 5 6 8 6 6 7 8 8 9 10 11 12 13 13 13 13 13 13 15 16 16 15 13 13 15 16 15 16 15 13 13 13 14 15 15 13 13 14 13 11 10 9 9 8 7 6 4 2 1 3 4 4 5 6 7 6 5 6 6 7 8 8 9 9 8 7 7 7 6
9 6 8 6 3 2 5 5 5 5 9 7 7 5 9 4 6 5 6 6 8 5 6 7 7 8 9 11 11 10 11 12 12 12 12 13 13 14 14 14 15 14 14 15 16 16 15 13 13 13 13 15 15 15 16 14 13 13 12 11 9 9 8 7 4 3 3 4 5 5 6 7 7 7 6 6 6 7 8 9 9 9 8 7 7 8 9
6 6 5 6 5 9 13 12 10 12 13 7 5 6 8 8 5 6 5 9 7 5 6 6 8 10 9 11 9 11 12 11 12 14 13 13 14 14 15 15 13 11 13 17 18 18 16 14 13 13 12 14 18 19 15 14 17 15 13 11 10 10 10 8 6 5 4 5 6 6 7 8 9 8 8 8 8 7 8 8 9 10 9 9 10 10 9
6 4 9 11 11 13 15 12 11 9 8 7 5 5 6 7 9 6 8 6 6 6 4 6 8 9 10 11 12 11 11 12 14 13 14 14 14 13 13 13 13 12 14 15 17 19 20 17 13 12 12 11 17 19 16 15 16 12 12 13 13 13 11 8 7 5 6 6 6 7 8 7 8 8 10 11 10 9 9 9 10 10 10 10 10 10 10
4 7 5 9 13 14 14 12 9 6 7 10 5 5 8 11 8 5 4 6 6 6 4 7 8 10 10 11 12 12 11 13 14 15 15 15 14 14 15 14 12 12 12 14 17 19 21 20 14 12 14 13 14 16 16 15 15 14 16 16 15 14 13 10 7 6 8 6 6 6 7 7 7 7 8 9 9 10 10 11 11 10 11 11 11 11 11
8 13 13 9 11 12 8 8 9 12 14 11 8 10 10 7 3 3 4 3 6 4 7 6 5 9 11 12 12 11 12 13 13 15 15 16 16 16 16 15 13 13 14 15 16 17 19 20 14 13 14 16 16 15 16 15 12 14 17 18 17 17 15 11 8 7 8 9 8 7 8 9 9 9 9 10 11 13 14 15 14 13 12 13 14 14 13
9 10 10 16 15 10 13 16 14 12 12 12 10 7 5 3 4 5 4 4 5 3 7 5 6 10 14 12 11 11 12 14 14 15 14 15 16 17 17 15 12 14 15 17 17 16 19 18 16 15 17 16 17 16 14 13 13 16 18 19 19 20 17 12 11 8 8 8 8 9 8 9 10 11 13 14 14 11 11 10 12 14 14 14 13 12 12
8 11 15 11 6 8 9 10 11 6 5 5 6 3 4 4 4 5 6 7 4 4 6 6 7 10 13 14 10 10 13 15 17 17 16 15 16 17 16 12 13 15 15 15 16 18 18 14 14 16 16 18 14 14 11 14 13 17 19 17 18 17 16 12 11 9 8 8 8 9 8 9 9 9 10 14 12 11 11 15 18 15 12 11 11 10 11
13 16 16 10 10 12 12 15 8 3 1 2 3 4 4 4 2 1 2 7 10 10 9 5 7 10 12 15 12 11 13 16 16 16 16 16 16 17 14 14 17 17 16 16 16 19 19 17 15 17 17 17 17 12 12 13 14 15 17 16 15 14 14 12 12 9 9 9 9 9 9 9 9 9 8 10 19 20 15 14 17 19 19 16 16 18 13
15 13 10 5 5 9 13 6 2 2 0 1 3 2 0 0 1 2 5 7 9 12 12 11 7 8 11 13 11 13 16 17 18 18 15 15 15 15 15 13 15 17 18 17 17 20 19 16 18 14 17 17 15 11 11 13 15 14 15 14 15 14 12 11 12 11 10 10 9 9 9 9 9 9 10 9 9 18 23 18 19 21 20 19 18 19 21
14 12 5 3 4 8 2 2 0 1 4 3 0 1 2 4 5 4 8 8 5 8 11 14 15 10 9 15 14 13 15 19 19 17 18 18 17 16 14 14 13 15 17 16 15 16 16 18 16 19 17 22 18 8 11 13 14 17 15 15 14 16 12 12 13 12 11 10 10 9 10 10 10 10 10 10 11 9 13 21 22 21 23 23 22 20 22
7 8 3 1 2 6 3 3 3 3 4 5 4 3 3 4 6 7 8 7 8 6 9 11 14 16 11 13 15 14 15 18 19 17 17 17 17 15 14 13 15 13 14 16 17 16 15 15 20 20 21 21 17 10 12 15 15 16 17 16 17 16 14 11 11 11 10 10 10 10 10 10 10 11 11 11 10 9 8 8 11 15 20 24 23 22 23
6 5 3 6 9 9 2 2 3 4 5 4 4 7 7 5 6 6 8 7 8 8 10 12 12 14 13 12 13 14 15 18 19 19 16 16 17 16 14 14 15 16 18 17 16 17 18 20 19 19 22 22 16 12 14 15 16 16 17 16 15 18 27 21 14 14 12 10 10 10 10 10 11 11 11 10 9 9 10 11 11 11 10 13 20 24 19
5 6 4 3 9 5 4 6 7 7 5 4 5 6 6 6 7 9 11 11 8 7 9 8 9 11 14 12 9 14 14 15 17 19 19 18 16 16 15 16 16 18 17 18 18 17 18 18 18 20 21 18 12 14 15 17 17 15 13 14 14 15 13 15 13 11 12 11 10 10 10 10 10 10 9 9 10 10 10 10 10 9 9 10 10 17 26
5 4 4 2 5 7 7 6 6 5 5 2 3 4 5 7 9 9 12 11 10 11 12 9 6 9 11 14 12 14 16 17 18 19 19 18 17 16 16 16 18 16 17 17 17 15 16 17 18 18 19 12 13 16 16 14 13 15 15 14 13 13 12 11 11 12 11 10 9 10 10 9 9 9 9 9 9 9 9 10 10 9 9 8 8 10 17
5 5 5 5 5 5 6 6 5 7 8 7 7 4 2 4 10 13 13 12 9 12 13 11 11 11 9 13 14 14 16 19 19 18 18 17 16 14 15 15 15 17 15 15 15 14 16 17 17 18 18 14 16 15 15 14 15 16 17 17 14 14 13 12 11 13 14 11 10 13 11 9 9 9 9 10 10 10 10 10 10 10 10 10 11 11 13
6 5 7 5 2 1 4 7 8 8 7 5 5 6 6 4 9 13 15 14 12 11 13 12 14 15 14 12 14 14 15 17 18 18 18 17 15 14 14 14 14 16 16 16 18 17 17 17 17 16 16 15 16 15 17 15 13 12 14 13 13 22 28 29 24 17 12 9 8 9 9 9 8 9 10 9 9 9 10 9 10 10 9 10 11 11 11
5 6 4 4 5 7 8 5 8 10 8 5 6 9 8 8 12 14 14 13 13 12 15 18 17 16 16 14 14 16 17 17 18 17 17 16 16 15 15 14 17 18 19 17 17 15 15 15 19 17 15 15 15 12 11 12 14 14 14 13 14 14 16 23 16 16 13 8 7 8 8 9 9 9 9 9 10 10 10 10 10 10 10 11 11 11 10
6 7 5 8 10 9 9 5 7 12 9 11 10 8 10 8 9 11 12 12 15 15 14 16 16 16 16 16 16 17 18 18 18 16 16 16 15 14 14 14 15 15 15 14 15 15 17 17 17 15 15 13 13 13 13 13 12 12 12 10 13 14 15 16 15 13 11 9 8 9 8 8 9 9 10 10 9 9 10 10 10 10 10 10 10 10 11
0 2 4 3 3 7 11 14 6 9 12 11 9 10 10 9 9 11 12 13 14 15 15 16 17 17 16 16 17 17 18 18 16 14 13 15 15 13 14 14 14 16 16 16 16 14 13 15 14 14 13 14 12 10 11 14 14 14 13 12 13 12 13 12 14 13 11 8 8 9 9 9 9 9 9 9 9 9 10 10 9 9 10 9 9 8 12
3 5 7 7 6 8 8 11 12 12 12 16 16 10 8 10 12 13 13 14 15 15 15 15 16 16 17 17 18 17 16 17 18 19 19 17 15 16 14 15 16 16 17 16 16 16 15 16 14 12 11 12 13 14 14 15 14 13 13 13 14 13 12 11 11 11 11 9 8 8 8 9 8 8 9 10 9 9 9 9 9 9 9 8 6 7 10
4 5 5 6 7 7 8 9 10 11 12 13 14 15 16 13 13 14 15 15 13 14 15 16 16 16 16 17 17 17 17 17 17 18 17 16 15 14 14 17 17 17 16 16 14 14 12 10 13 19 16 13 13 13 14 14 14 13 13 13 12 12 12 10 10 10 8 8 8 8 8 9 9 8 9 8 8 8 9 9 9 8 9 9 9 10 9
4 6 6 7 7 7 9 10 9 10 12 13 14 16 17 16 15 15 13 14 13 13 15 15 16 16 17 17 18 17 16 14 14 14 15 16 15 15 16 16 15 15 14 13 11 8 11 12 16 22 16 12 12 13 14 21 13 11 11 11 11 11 10 10 9 7 6 6 6 7 6 6 6 6 6 8 8 7 8 8 8 9 9 10 10 9 9
6 7 8 8 9 9 10 9 9 11 13 18 16 15 16 16 15 14 14 13 13 14 14 14 15 16 17 15 15 16 17 17 18 19 20 19 17 17 16 13 11 10 11 11 12 12 11 15 21 16 11 11 11 11 14 20 21 14 10 10 10 10 8 7 5 4 4 5 4 6 6 6 6 6 6 6 7 7 7 8 9 10 10 8 8 9 10
7 6 6 7 8 9 11 10 9 10 11 17 20 18 14 14 14 14 14 13 13 13 14 15 15 14 15 17 16 16 19 21 23 24 22 23 19 15 14 13 12 11 11 12 13 12 13 14 13 12 10 10 12 12 13 15 15 7 5 4 4 2 2 2 3 3 3 4 5 5 5 5 5 6 6 6 6 7 6 9 10 8 8 8 10 10 9
8 7 8 8 9 9 10 11 10 11 11 10 13 16 14 12 13 13 13 13 13 12 13 14 14 14 16 15 16 17 18 22 20 21 23 19 16 15 13 11 10 10 12 17 14 11 15 21 15 10 9 9 9 8 8 10 9 5 4 4 3 3 2 2 3 4 4 5 6 5 5 5 6 5 6 6 7 7 7 8 9 8 9 9 9 9 10
8 9 8 9 10 9 10 11 12 11 10 11 11 12 11 12 12 12 13 14 13 12 12 12 13 13 13 14 16 18 19 17 18 19 18 15 13 11 11 12 11 12 12 12 12 12 14 12 10 9 9 9 8 8 7 8 6 4 4 4 4 4 4 4 4 4 4 5 5 6 6 7 7 8 6 7 7 7 8 8 8 8 9 10 10 9 9
8 8 10 11 11 10 10 10 11 12 11 9 11 11 12 11 11 12 13 13 13 12 12 11 14 14 14 14 14 16 18 18 17 16 16 12 11 11 12 12 13 11 18 18 14 12 9 9 9 8 9 8 7 12 11 6 5 5 4 5 5 5 5 6 6 6 6 6 6 6 6 6 8 8 7 8 8 8 8 8 8 8 8 9 11 11 11
8 9 10 10 10 10 10 10 11 12 12 11 10 10 10 10 10 11 12 12 12 11 11 10 11 12 11 12 13 15 14 13 14 13 13 11 11 9 9 11 12 12 20 14 12 10 10 9 9 8 12 11 9 13 10 6 6 5 5 5 5 6 6 6 6 6 6 6 6 6 6 7 7 8 8 8 8 8 9 9 9 9 9 9 10 10 10
9 9 9 10 11 10 10 10 10 10 11 11 9 9 10 10 11 11 11 11 11 11 12 11 10 9 10 10 11 11 11 12 11 10 10 12 12 6 6 10 10 14 19 13 10 9 9 9 8 13 16 15 14 12 7 6 6 6 6 5 5 5 6 6 6 6 6 6 6 6 6 6 7 7 8 8 8 7 7 8 8 8 9 9 10 11 10
9 9 10 11 11 10 10 9 10 11 11 11 11 11 11 11 10 9 9 10 10 9 10 9 9 9 9 8 8 9 9 9 9 9 10 12 13 14 12 14 13 11 13 18 10 10 9 10 14 18 15 17 15 13 7 6 6 6 6 6 6 6 5 5 6 6 6 7 7 6 6 6 6 7 7 7 7 8 8 8 8 9 11 10 11 10 13
9 9 10 10 11 11 11 10 11 10 10 11 11 11 10 9 7 8 7 8 8 8 8 8 8 8 8 9 9 9 8 8 7 5 4 6 8 11 12 14 12 13 19 18 10 11 10 18 20 18 17 16 15 9 7 7 7 6 6 6 6 6 6 6 6 6 6 6 6 7 7 7 7 7 7 7 7 8 8 9 9 8 9 7 12 12 9
9 9 10 10 11 11 11 11 10 10 11 10 9 7 5 6 7 6 6 7 7 7 6 6 6 7 7 7 7 8 9 11 10 3 4 7 8 9 12 15 14 17 15 11 11 10 13 14 16 19 19 17 14 8 7 7 7 7 7 6 6 6 6 6 6 6 6 6 7 7 8 8 7 8 8 9 9 9 9 10 9 10 8 8 9 8 8
10 10 11 11 12 13 12 10 9 8 8 7 7 7 7 6 7 7 6 5 6 6 5 4 4 4 6 6 5 4 5 6 11 9 7 9 8 8 8 8 11 16 15 11 13 12 21 21 21 20 20 17 10 8 8 7 7 7 7 7 6 6 6 6 6 6 6 6 7 7 7 7 8 8 8 8 9 9 10 12 13 11 8 9 11 10 8
9 11 12 12 11 11 9 8 7 7 5 6 6 6 6 6 6 5 5 5 6 5 4 3 4 4 4 5 6 5 5 4 3 6 9 8 8 8 8 10 13 14 10 8 9 8 15 19 19 19 18 13 9 9 8 8 8 8 7 7 6 6 6 6 6 5 6 7 7 7 7 7 7 8 9 9 9 8 9 8 8 8 6 7 7 5 6
9 8 8 7 7 7 6 6 5 6 6 6 5 5 5 5 5 4 4 4 4 5 4 4 3 4 4 5 4 5 5 5 6 6 6 7 8 7 8 8 8 12 11 8 8 8 11 16 15 15 11 8 9 9 8 9 8 8 8 8 8 7 8 8 8 9 8 7 7 7 7 7 7 8 8 8 8 8 7 7 7 8 11 7 6 7 7
7 7 7 7 6 6 7 7 6 7 5 6 5 5 5 4 4 4 4 5 4 5 5 4 4 5 5 5 5 5 5 6 6 7 6 7 7 8 9 8 8 9 10 9 8 9 8 9 9 10 10 9 8 8 8 8 8 8 8 8 8 8 8 9 7 8 7 7 7 7 7 7 7 7 7 7 7 7 7 7 7 6 6 5 6 6 7
8 7 6 4 6 6 6 6 6 5 5 4 4 4 4 3 4 3 3 6 5 4 5 6 5 5 6 5 6 6 6 6 6 6 6 7 7 6 8 9 8 8 9 8 9 8 8 8 8 10 10 8 8 8 8 10 9 8 8 9 7 8 8 8 7 7 7 7 7 7 7 6 6 7 7 6 6 7 7 6 6 5 5 5 7 7 7
Wind_Direction
252 260 266 272 276 272 275 272 278 276 275 275 268 264 262 258 253 266 268 272 271 265 268 314 354 9 18 31 38 39 31 29 23 21 24 21 15 9 8 3 360 357 353 348 346 346 345 344 344 341 338 335 331 319 297 283 271 257 245 235 240 239 238 235 232 226 220 216 216 210 199 195 196 193 192 192 187 181 185 187 184 183 180 176 173 180 180
277 280 274 273 268 271 269 267 262 262 266 266 264 263 264 267 269 270 276 273 271 310 3 15 16 359 14 19 31 33 30 20 21 19 18 20 14 8 3 358 354 351 347 345 343 341 342 343 341 338 336 333 331 327 324 320 310 286 246 239 239 237 234 235 236 233 229 224 215 204 198 199 198 194 190 185 183 185 186 184 179 176 175 178 179 179 176
292 285 280 275 268 267 272 272 272 270 267 266 267 275 283 281 274 273 268 266 267 40 342 7 1 5 2 24 32 30 25 18 18 17 12 9 7 5 359 353 350 345 344 343 343 343 341 340 337 335 331 329 328 329 330 327 320 310 273 250 244 236 237 236 235 231 226 223 208 205 206 200 196 189 187 183 183 182 180 178 178 175 174 178 182 180 181
274 278 278 281 286 282 278 282 277 272 268 271 269 265 255 260 277 294 308 307 355 337 351 337 8 7 8 8 24 24 20 14 12 12 3 1 356 357 351 348 345 342 341 341 341 338 335 333 333 333 331 329 330 331 330 326 319 312 294 264 256 248 243 244 237 227 219 214 208 212 198 201 195 192 181 177 180 181 177 177 178 173 179 183 180 181 179
274 281 283 293 302 302 286 269 273 277 268 263 266 275 348 355 321 275 257 86 343 352 335 354 357 12 349 355 357 22 18 16 12 3 356 353 345 348 342 341 339 338 336 333 332 331 331 329 328 325 323 323 326 327 324 318 315 312 301 280 266 261 256 250 244 231 215 206 211 207 203 193 182 177 181 181 180 178 183 181 167 178 184 177 182 177 176
285 290 290 307 303 272 264 4 30 71 54 40 41 15 360 4 37 65 82 70 358 339 353 359 349 354 346 323 314 47 27 8 359 354 345 345 337 333 331 331 332 329 328 327 326 324 321 320 320 318 320 321 321 321 318 319 322 319 313 295 275 269 271 263 251 235 219 210 210 207 191 179 173 176 179 188 184 178 168 167 178 179 178 181 178 180 180
269 278 296 292 262 261 353 90 56 103 103 90 98 86 39 23 42 57 53 37 14 360 351 343 335 330 318 316 289 342 13 13 358 342 338 336 338 331 329 329 328 327 323 322 321 320 320 320 320 324 326 331 331 329 331 329 328 327 320 306 293 282 279 272 257 237 221 214 214 194 183 178 177 181 181 178 177 179 177 179 179 181 181 181 182 177 176
271 253 233 249 257 214 141 103 48 350 143 94 131 112 68 39 52 58 43 19 351 341 337 334 329 310 313 289 266 138 21 13 348 335 331 327 326 325 323 322 321 322 323 321 320 317 316 318 320 321 320 325 329 324 324 326 327 327 325 316 305 302 291 284 266 245 216 211 196 179 177 178 183 186 183 182 179 175 173 176 177 173 179 177 174 176 176
257 241 245 249 278 261 184 9 0 22 17 323 349 305 103 93 137 105 360 345 342 338 324 329 326 320 313 303 259 87 14 345 336 323 310 313 312 313 316 317 317 316 314 317 319 319 319 319 321 323 326 327 327 326 328 329 331 329 332 329 325 320 306 300 283 256 222 202 191 182 181 184 191 188 181 180 177 170 172 177 176 182 182 180 178 175 174
246 264 292 290 259 246 138 227 240 266 227 248 229 225 245 132 306 168 141 300 310 298 304 324 320 329 338 332 318 167 339 329 325 308 298 302 308 312 315 317 314 318 319 319 319 322 322 323 324 324 327 327 328 330 331 332 334 331 335 332 326 322 314 308 286 265 232 200 195 186 185 194 192 192 185 181 178 174 177 176 181 184 175 174 178 178 176
308 289 275 274 281 293 127 253 245 250 259 273 226 184 225 142 152 221 145 227 248 268 301 315 329 350 336 309 305 324 330 323 319 312 310 317 315 317 319 320 320 321 323 321 322 324 326 323 326 330 328 329 332 332 333 333 330 331 334 330 327 322 314 307 289 271 245 219 205 191 194 196 187 184 183 183 172 169 178 176 178 168 171 174 175 179 183
234 251 265 269 270 276 172 177 244 238 277 248 178 275 265 129 207 195 191 223 252 254 246 271 20 337 318 313 307 316 318 315 317 318 322 322 322 317 316 314 314 315 315 320 321 325 325 323 327 328 327 329 333 332 331 331 330 332 332 322 311 307 308 314 309 282 247 227 217 198 192 174 173 181 165 157 167 171 173 170 168 167 172 174 173 177 174
258 261 270 282 267 253 186 281 272 293 283 89 291 270 299 331 309 229 187 229 241 234 274 268 314 273 245 272 287 299 307 311 309 312 313 309 312 313 313 314 316 314 314 316 317 318 322 323 326 326 328 329 328 328 327 328 327 327 321 312 309 309 310 317 321 303 287 224 205 188 167 160 151 146 162 167 162 167 162 155 156 163 170 170 170 172 171
224 235 237 250 276 244 148 276 219 262 16 292 264 238 156 246 276 204 185 224 242 220 237 250 238 265 279 279 283 292 298 301 302 309 311 310 308 303 304 308 314 315 315 317 316 317 320 324 320 325 329 325 320 322 323 321 320 319 317 311 308 309 309 308 309 295 261 175 148 153 139 142 149 160 159 155 164 161 155 153 160 164 164 165 166 161 163
32 178 271 277 266 250 99 341 341 52 90 226 304 290 277 215 230 214 224 219 246 224 246 243 256 272 279 277 280 286 292 299 306 308 308 308 308 310 312 310 310 315 315 316 316 315 318 320 322 322 326 318 315 319 317 314 316 317 312 307 304 301 298 294 286 253 199 167 169 156 160 159 158 162 158 160 167 162 159 158 162 164 167 165 161 161 157
259 227 234 222 205 241 300 348 258 273 263 272 275 280 287 248 200 225 228 237 232 230 238 262 271 268 275 284 284 286 287 292 298 300 300 301 302 301 301 303 309 317 313 310 312 312 312 315 318 321 322 318 314 317 313 320 316 312 308 300 294 290 284 274 267 237 200 181 172 176 170 162 158 155 163 171 173 178 171 167 167 167 172 167 166 168 171
187 205 244 256 304 313 299 285 274 265 271 265 231 240 252 270 247 213 220 244 248 230 246 258 269 283 273 274 285 289 289 294 295 295 297 296 296 297 300 301 305 310 309 310 311 307 307 311 315 316 319 317 316 310 313 322 315 306 304 302 293 283 276 266 248 240 217 200 185 182 180 169 169 164 167 169 175 187 175 181 178 178 180 176 180 180 181
255 251 247 276 280 267 272 268 254 262 275 274 250 235 255 241 244 199 214 240 256 260 239 257 267 262 278 289 290 288 290 293 290 289 293 295 294 295 295 297 306 311 311 307 304 304 306 308 312 312 311 315 309 304 312 315 305 308 315 309 299 285 276 260 247 221 216 220 203 190 183 186 184 179 174 179 181 181 185 189 188 186 181 183 184 184 185
265 273 242 226 246 254 249 258 277 261 245 265 248 226 235 253 243 227 230 241 255 256 264 247 260 275 280 283 283 287 290 284 285 287 289 291 293 296 296 296 307 309 306 303 302 303 304 303 309 309 307 306 299 302 305 305 308 323 321 312 300 290 279 267 249 222 222 215 208 206 193 188 186 182 185 185 186 186 190 189 189 190 188 185 187 189 186
213 250 254 250 231 240 261 263 269 273 272 262 240 231 243 246 237 214 224 217 252 260 268 261 276 278 279 279 279 283 282 281 283 285 287 290 295 293 292 296 303 303 300 298 298 300 298 297 307 309 303 301 300 300 300 302 312 315 309 303 298 291 282 273 253 230 229 220 206 203 204 195 189 189 194 193 194 196 190 192 187 193 189 188 192 191 189
243 271 278 263 268 284 276 270 262 255 253 263 263 238 234 244 267 274 270 229 247 256 263 289 286 282 278 273 273 274 279 280 278 278 284 287 287 289 291 293 299 295 301 300 297 297 292 295 304 303 299 297 296 295 299 308 317 310 300 296 294 289 284 272 259 237 230 221 212 210 204 206 213 202 190 192 203 211 215 202 198 190 190 200 198 193 182
254 247 252 248 265 272 266 261 265 261 255 243 246 178 231 252 266 270 274 282 258 250 267 269 267 265 275 280 279 278 277 279 283 288 290 289 288 286 283 289 290 292 290 290 293 293 289 293 299 295 294 291 289 294 308 310 309 300 295 293 288 282 280 273 262 245 231 229 220 217 212 209 209 223 229 218 208 204 208 208 214 214 208 205 194 182 187
248 246 250 252 249 261 263 269 296 80 113 133 183 225 243 266 244 259 290 293 299 285 268 232 244 262 272 280 287 283 278 280 283 285 289 290 289 288 296 302 298 295 292 291 292 289 289 295 292 291 289 288 288 295 308 299 298 291 287 286 281 279 278 274 266 250 236 232 224 217 216 214 212 212 212 222 224 222 216 208 210 214 213 211 199 197 189
257 264 266 242 218 244 264 275 92 131 206 209 251 244 269 354 291 286 273 260 269 283 289 287 261 263 278 281 283 281 283 282 282 284 284 279 278 285 291 290 291 295 295 292 291 289 292 293 291 289 286 283 277 295 300 292 288 281 279 278 280 278 275 275 272 258 241 235 226 219 220 212 212 212 212 213 222 225 222 214 211 212 214 211 205 199 198
256 262 278 265 257 267 295 102 220 90 51 59 10 292 338 306 293 275 272 276 257 267 286 290 294 288 281 284 283 280 282 284 283 286 288 287 285 287 288 291 288 288 288 287 284 284 287 290 291 290 286 283 286 308 295 293 289 285 282 280 279 279 276 272 271 260 249 238 231 223 219 212 211 209 212 211 213 213 220 224 221 219 218 217 213 206 201
269 282 316 348 294 264 261 344 286 75 19 26 357 296 302 280 283 285 272 273 280 275 273 279 286 289 284 281 284 286 282 280 285 290 289 290 291 290 288 286 287 284 281 283 282 279 280 281 283 285 284 284 292 314 295 288 281 275 275 275 274 275 277 271 268 264 252 241 234 229 220 218 214 211 213 212 213 203 195 197 219 224 222 218 213 209 209
46 16 4 315 284 273 90 220 276 15 335 341 303 297 298 296 283 279 281 278 277 279 274 275 276 280 284 278 281 281 282 289 293 288 286 285 286 288 291 292 290 287 285 281 277 278 280 282 281 279 278 281 296 301 286 279 272 267 266 267 268 271 271 269 266 264 258 245 235 229 223 217 216 213 215 212 207 203 197 200 201 204 202 212 215 211 204
62 16 39 220 265 308 321 330 336 318 323 305 299 293 305 313 309 301 293 290 282 266 264 264 277 285 287 288 289 290 289 285 283 287 289 287 288 292 292 292 289 287 284 281 281 282 283 280 276 274 273 279 287 280 276 271 266 271 286 290 287 285 288 287 282 271 257 248 231 226 222 220 215 214 212 205 205 206 205 204 205 201 202 200 200 208 203
37 25 10 319 277 289 305 308 307 303 302 293 284 307 313 312 297 289 287 289 294 298 290 289 278 279 286 293 297 291 290 287 285 284 286 288 291 290 290 286 284 279 277 279 280 279 276 274 273 273 273 281 283 281 280 278 282 284 279 274 269 268 266 263 264 264 263 250 234 225 221 216 209 210 206 206 204 204 203 203 203 203 199 188 180 194 202
355 345 319 303 302 307 311 314 311 311 310 312 312 296 287 307 303 296 293 294 300 294 293 299 296 291 290 290 289 288 287 288 288 289 288 287 285 284 283 283 281 276 273 271 272 275 274 274 275 275 280 288 284 280 280 277 276 270 266 265 264 268 268 261 253 257 255 247 235 228 223 213 207 204 201 202 199 199 199 200 199 194 191 189 188 186 187
324 306 292 285 284 315 326 304 305 295 298 301 304 308 303 283 276 287 293 300 300 294 297 299 297 296 295 288 287 287 284 283 284 285 285 285 283 280 279 280 280 286 286 283 283 280 277 275 274 273 285 284 283 279 275 272 278 285 288 285 281 274 272 275 278 281 277 249 227 215 210 207 200 199 200 197 196 196 198 196 197 194 192 188 187 187 181
331 323 347 35 9 336 323 319 312 304 302 308 315 306 305 309 299 293 295 297 295 300 303 303 300 300 298 296 291 289 286 284 283 282 282 281 281 280 275 271 271 271 276 280 280 279 277 278 279 281 282 278 275 272 283 288 286 280 275 278 277 276 272 265 263 261 262 246 216 206 203 197 199 196 197 197 197 195 192 193 195 192 188 186 187 186 176
4 355 359 350 338 332 310 314 319 309 318 313 304 296 297 288 280 281 286 293 299 301 299 294 295 295 296 296 294 291 289 286 282 279 280 280 278 276 276 274 274 273 275 278 280 282 281 280 279 281 277 276 281 283 280 278 277 274 274 267 267 270 275 272 262 255 246 224 208 200 197 194 196 193 198 197 193 191 192 195 190 187 185 186 181 181 179
16 250 265 294 266 286 303 301 295 290 296 288 284 294 294 288 284 287 291 293 292 293 295 296 296 297 296 294 292 291 291 292 292 288 280 282 284 282 282 280 282 284 284 284 284 282 280 278 281 283 286 287 287 288 283 277 272 269 268 266 263 261 255 252 258 260 257 227 207 192 191 191 191 192 193 191 192 192 193 192 186 182 178 175 174 165 176
288 275 279 274 277 276 278 283 294 296 297 300 302 293 274 285 292 290 291 293 294 296 297 295 294 295 295 294 293 291 289 286 289 293 295 295 292 293 294 295 294 291 289 286 285 284 284 285 285 291 297 296 290 281 276 272 270 268 266 264 264 262 259 255 252 246 241 226 196 193 191 190 191 188 186 187 189 190 189 186 179 173 166 151 133 143 154
281 279 274 271 269 267 269 271 276 277 284 285 287 294 299 296 294 294 296 294 295 295 295 294 295 294 293 294 295 297 295 293 291 292 294 297 301 306 305 301 299 296 292 289 286 288 293 298 304 299 293 287 282 276 271 271 267 265 261 261 261 261 255 249 246 241 226 199 194 191 189 187 182 184 180 184 183 183 180 172 165 153 144 140 141 142 135
256 266 271 275 271 270 269 271 272 280 279 281 286 291 290 291 289 290 291 292 294 292 293 294 294 294 294 294 293 292 291 292 297 301 306 311 310 306 302 298 297 295 298 296 302 307 302 295 290 290 290 284 281 275 277 279 277 272 268 263 257 256 254 251 243 223 204 185 181 179 172 171 174 173 174 174 174 170 161 153 143 140 143 147 147 130 113
273 270 275 276 278 275 272 269 273 274 280 280 276 274 279 286 291 291 291 291 291 290 289 288 288 290 291 291 295 299 303 308 311 311 311 309 309 306 303 301 301 303 299 296 304 304 298 297 296 293 286 283 282 284 285 286 284 279 265 261 254 255 247 231 209 185 175 161 157 156 161 165 162 162 160 165 156 152 144 140 142 144 145 137 118 116 122
285 273 270 273 275 275 279 278 272 268 269 276 281 281 278 280 282 287 288 288 287 287 289 290 292 294 300 305 305 310 313 314 314 313 313 311 310 308 303 300 293 294 292 299 301 302 298 297 297 296 295 292 292 289 288 292 297 286 280 274 273 264 243 167 162 137 132 134 138 142 141 143 141 141 139 131 122 120 129 135 136 127 117 117 120 119 118
287 293 288 289 283 283 282 282 278 274 269 266 275 283 287 287 286 287 288 289 288 288 291 298 305 308 308 309 315 315 316 317 317 315 314 314 314 311 307 303 307 310 313 313 310 302 307 310 310 302 297 295 295 294 298 313 322 327 331 340 345 21 28 66 89 108 112 113 114 111 109 110 110 113 111 108 114 117 120 120 115 114 112 108 109 114 114
288 296 297 290 287 285 282 285 284 278 277 275 272 272 276 278 282 285 286 288 293 294 297 301 305 303 307 313 313 312 315 317 316 315 319 322 320 321 317 313 320 323 315 316 315 318 318 317 313 310 307 309 302 320 314 330 342 347 355 6 19 34 46 46 55 59 79 91 97 103 107 106 103 99 99 101 102 106 110 108 109 114 119 118 114 114 116
298 294 293 291 286 283 280 278 281 284 278 271 273 275 276 275 276 279 284 288 290 295 299 301 303 308 311 312 312 315 316 318 323 325 328 327 322 322 319 316 324 319 323 325 327 325 321 321 321 319 320 322 320 336 345 344 350 357 20 23 37 36 52 52 61 58 61 67 74 84 87 98 102 101 100 106 106 107 105 104 104 105 110 118 124 127 131
295 296 292 290 285 282 279 280 281 282 286 284 279 277 278 280 281 284 285 286 293 300 304 304 308 310 313 317 322 321 320 324 325 325 325 319 316 304 309 312 320 323 331 335 333 332 333 331 335 332 344 347 346 349 354 358 355 1 19 35 47 51 55 58 63 65 69 79 81 81 87 100 101 110 110 111 113 115 116 119 119 121 122 120 121 120 120
292 290 290 288 287 285 285 286 284 284 286 286 285 286 288 286 283 281 284 293 300 304 309 310 311 316 321 327 325 322 323 328 328 331 327 323 322 316 326 327 326 329 338 341 336 336 335 338 341 351 352 360 3 6 360 360 4 9 16 28 41 52 63 68 68 71 75 78 80 89 94 95 100 106 110 114 114 110 110 111 117 119 122 121 125 123 124
292 291 291 287 286 289 287 283 284 285 285 288 291 287 284 281 278 277 288 296 300 307 311 310 315 322 327 327 322 318 316 316 316 325 332 334 331 327 338 336 334 336 341 346 341 340 341 345 356 3 8 6 7 9 10 4 9 17 20 25 30 37 45 56 69 75 81 80 85 88 89 90 96 99 102 101 105 110 111 114 114 122 125 111 117 101 98
296 293 289 291 289 284 280 280 281 283 285 286 286 284 278 272 282 293 291 294 303 304 308 310 318 324 326 324 320 317 318 315 313 305 303 315 314 311 323 332 336 341 348 351 348 349 350 353 1 7 11 15 14 11 8 9 13 19 25 28 37 42 45 44 52 64 73 85 90 89 93 97 94 94 100 106 107 106 106 108 112 119 121 103 90 84 98
296 296 290 284 283 282 284 285 283 283 282 283 283 288 293 296 298 296 296 299 299 302 305 310 321 327 330 328 330 335 337 331 323 318 324 328 319 321 333 337 341 347 354 354 356 355 360 1 5 10 12 13 17 17 15 20 18 22 21 30 29 44 47 57 56 62 68 79 81 87 89 92 96 99 99 102 104 108 115 115 117 116 118 118 113 115 114
297 293 291 289 287 287 290 289 288 280 277 279 292 297 299 300 300 299 301 300 305 310 312 313 322 322 322 327 330 337 324 330 322 319 349 339 331 330 335 338 345 355 355 355 358 358 7 14 16 16 17 16 12 12 12 19 25 28 29 29 30 30 41 58 62 71 73 77 80 88 89 93 99 103 105 109 116 118 122 124 124 126 115 96 95 94 113
291 285 286 286 286 285 288 285 288 294 299 299 299 298 305 301 301 304 308 314 318 315 314 327 328 333 328 338 341 334 326 318 299 292 318 327 328 334 336 342 349 357 359 357 359 357 7 15 19 21 20 17 14 13 16 17 21 24 26 31 36 42 47 50 53 58 71 71 78 78 86 86 94 100 102 101 103 95 106 104 90 105 109 117 114 110 111
293 293 294 296 295 296 291 300 306 301 303 304 303 307 303 314 319 321 321 321 325 325 326 333 340 336 338 339 335 336 323 324 314 308 312 322 330 336 340 343 346 358 4 4 3 2 3 9 16 17 17 17 20 21 20 20 20 21 26 28 32 38 40 47 64 64 66 71 71 74 77 82 87 89 95 99 101 104 104 102 99 100 101 103 104 107 87
310 311 297 291 294 300 313 314 308 313 310 315 309 311 322 324 315 323 325 338 337 346 348 338 337 349 344 344 340 335 333 332 330 337 337 338 341 344 348 354 356 359 3 4 10 5 4 10 11 16 16 17 20 22 25 25 28 29 30 33 31 33 35 38 41 48 48 54 62 64 69 76 78 84 83 93 95 98 97 100 102 106 104 112 111 91 76
314 306 295 335 328 326 324 317 320 321 321 318 316 331 334 329 323 333 343 5 4 353 350 338 341 351 354 341 343 342 342 345 344 343 350 348 353 350 349 358 5 4 6 9 8 7 10 6 11 17 22 24 22 23 23 26 30 33 31 34 37 40 41 42 43 51 53 56 62 69 65 63 74 82 83 84 91 95 94 94 94 91 92 80 57 68 72